Change the Weather History Date:

Thursday, October 31, 2013

  Actual Average Record
Temperature  
Mean Temperature 52 °F 51 °F  
Max Temperature 64 °F 67 °F 86 °F (1950)
Min Temperature 39 °F 35 °F 13 °F (1991)
Degree Days  
Heating Degree Days 13 14  
Month to date heating degree days 289 296  
Since 1 July heating degree days 303 360  
Cooling Degree Days 0 0  
Month to date cooling degree days 13 10  
Year to date cooling degree days 1576 1138  
Growing Degree Days 2 (Base 50)    
Moisture  
Dew Point 31 °F    
Average Humidity 51    
Maximum Humidity 86    
Minimum Humidity 16    
Precipitation  
Precipitation 0.12 in 0.04 in 1.61 in (1998)
Month to date precipitation 0.12 1.47  
Year to date precipitation 6.78 16.47  
Snow  
Snow 0.00 in 0.00 in 1.80 in (1991)
Month to date snowfall T 0.6  
Since 1 July snowfall T 0.6  
Since 1 September snowfall T 0.6  
Snow Depth 0.00 in    
Sea Level Pressure  
Sea Level Pressure 29.77 in    
Wind  
Wind Speed 12 mph (West)    
Max Wind Speed 45 mph    
Max Gust Speed 56 mph    
Visibility 9 miles    
Events Rain , Thunderstorm    
T = Trace of Precipitation, MM = Missing Value Source: NWS Daily Summary

Daily Weather History Graph

Daily Weather History Graph

Search for Another Location

Airport or City:

Trip Planner

Search our weather history database for the weather conditions in past years. The results will help you decide how hot, cold, wet, or windy it might be!

Date:

Astronomy

Oct. 31, 2013 Rise Set
Actual Time 8:12 AM CDT 6:55 PM CDT
Civil Twilight 7:45 AM CDT 7:21 PM CDT
Nautical Twilight 7:15 AM CDT 7:51 PM CDT
Astronomical Twilight 6:45 AM CDT 8:21 PM CDT
Moon 5:08 AM CDT (10/31) 5:09 PM CDT (10/31)
Length of Visible Light 11h 35m
Length of Day
10h 42m
Waning Crescent, 10% of the Moon is Illuminated
Oct 31
Waning Crescent
Nov 3
New
Nov 9
First Quarter
Nov 17
Full
Nov 25
Last Quarter

Hourly Weather History & Observations

Time (CDT) Temp. Windchill Dew Point Humidity Pressure Visibility Wind Dir Wind Speed Gust Speed Precip Events Conditions
12:53 AM 48.9 °F - 33.1 °F 54% 29.61 in 10.0 mi WSW 6.9 mph - N/A   Scattered Clouds
1:53 AM 46.0 °F 40.2 °F 32.0 °F 58% 29.62 in 10.0 mi SW 12.7 mph - N/A   Clear
2:53 AM 45.0 °F 38.2 °F 32.0 °F 60% 29.61 in 10.0 mi West 15.0 mph - N/A   Clear
3:45 AM 44.6 °F 33.9 °F 37.4 °F 76% 29.74 in 10.0 mi WNW 35.7 mph 51.8 mph 0.00 in Rain , Thunderstorm Light Rain
3:53 AM 42.1 °F 29.5 °F 37.0 °F 82% 29.67 in 3.0 mi WNW 42.6 mph 56.4 mph 0.02 in Rain , Thunderstorm Rain
3:58 AM 41.0 °F 28.8 °F 37.4 °F 87% 29.79 in 1.8 mi WNW 36.8 mph 56.4 mph 0.01 in Rain Rain
4:00 AM 41.0 °F 29.7 °F 37.4 °F 87% 29.79 in 1.8 mi WNW 31.1 mph 56.4 mph 0.01 in Rain , Thunderstorm Rain
4:15 AM 42.8 °F 32.9 °F 39.2 °F 87% 29.81 in 2.5 mi WNW 26.5 mph 36.8 mph 0.05 in Rain Rain
4:25 AM 42.8 °F 33.3 °F 39.2 °F 87% 29.81 in 5.0 mi NW 24.2 mph 38.0 mph 0.06 in Rain Light Rain
4:53 AM 42.1 °F 31.7 °F 37.9 °F 85% 29.67 in 6.0 mi North 27.6 mph 38.0 mph 0.10 in Rain Light Rain
5:53 AM 42.1 °F 37.1 °F 37.9 °F 85% 29.76 in 10.0 mi NW 8.1 mph - 0.00 in   Overcast
6:53 AM 41.0 °F 35.2 °F 37.9 °F 89% 29.79 in 10.0 mi WNW 9.2 mph - N/A   Scattered Clouds
7:53 AM 39.9 °F 32.1 °F 36.0 °F 86% 29.81 in 10.0 mi WNW 13.8 mph - N/A   Clear
8:53 AM 42.1 °F 35.2 °F 37.0 °F 82% 29.85 in 10.0 mi NW 12.7 mph - N/A   Clear
9:53 AM 46.0 °F 43.1 °F 39.0 °F 76% 29.90 in 10.0 mi West 5.8 mph - N/A   Clear
10:53 AM 50.0 °F - 37.0 °F 61% 29.88 in 10.0 mi WNW 10.4 mph - N/A   Clear
11:53 AM 54.0 °F - 33.1 °F 45% 29.85 in 10.0 mi NW 15.0 mph 20.7 mph N/A   Clear
12:53 PM 57.9 °F - 23.0 °F 26% 29.84 in 10.0 mi WNW 15.0 mph 21.9 mph N/A   Clear
1:53 PM 59.0 °F - 21.9 °F 24% 29.82 in 10.0 mi West 5.8 mph 17.3 mph N/A   Clear
2:53 PM 61.0 °F - 21.0 °F 21% 29.78 in 10.0 mi WNW 10.4 mph - N/A   Clear
3:53 PM 62.1 °F - 19.9 °F 20% 29.77 in 10.0 mi West 12.7 mph - N/A   Clear
4:53 PM 64.0 °F - 18.0 °F 17% 29.74 in 10.0 mi West 6.9 mph - N/A   Clear
5:53 PM 63.0 °F - 17.1 °F 17% 29.73 in 10.0 mi SW 8.1 mph - N/A   Clear
6:53 PM 53.1 °F - 27.0 °F 37% 29.75 in 10.0 mi South 6.9 mph - N/A   Clear
7:53 PM 46.9 °F - 24.1 °F 41% 29.78 in 10.0 mi South 9.2 mph - N/A   Clear
8:53 PM 44.1 °F 40.8 °F 25.0 °F 47% 29.78 in 10.0 mi SSE 5.8 mph - N/A   Clear
9:53 PM 46.0 °F 43.9 °F 23.0 °F 40% 29.77 in 10.0 mi SSE 4.6 mph - N/A   Clear
10:53 PM 44.1 °F 41.5 °F 23.0 °F 43% 29.77 in 10.0 mi SSE 4.6 mph - N/A   Clear
11:53 PM 43.0 °F - 24.1 °F 47% 29.76 in 10.0 mi Calm Calm - N/A   Clear